Location: Newark
(11.2914°S, 14.4718°E)
Time: 07:27:30
(UTC+00:00)

Tiros 1 despin weight - Pass Details

Date: 20 September 2019
Orbit: 593 x 643 km, 48.2° (Epoch: 20 October)

Event Time Altitude Azimuth Distance (km) Brightness Sun altitude
Rises 19:18:20 0° 2° (N) 2,812 - -35.1°
Reaches altitude 10° 19:22:41 10° 43° (NE) 1,928 - -36.2°
Maximum altitude 19:23:29 10° 53° (NE) 1,904 - -36.4°
Drops below altitude 10° 19:24:17 10° 64° (ENE) 1,935 - -36.6°
Sets 19:28:41 0° 104° (ESE) 2,860 - -37.6°
